Sofia, Bulgaria

9:39 AM EET on February 20, 2017 (GMT +0200)
Sofia

Weather History for LBSF - November, 2013

Change the Weather History Date:

Wednesday, November 13, 2013

  Actual Average Record
Temperature  
Mean Temperature 54 °F -  
Max Temperature 59 °F 45 °F 68 °F (2015)
Min Temperature 49 °F 31 °F 21 °F (2011)
Degree Days  
Heating Degree Days 11    
Growing Degree Days 4 (Base 50)    
Moisture  
Dew Point 50 °F    
Average Humidity 87    
Maximum Humidity 100    
Minimum Humidity 72    
Precipitation  
Precipitation 0.00 in 0.06 in - ()
Sea Level Pressure  
Sea Level Pressure 30.18 in    
Wind  
Wind Speed 9 mph ()    
Max Wind Speed 16 mph    
Max Gust Speed -    
Visibility 5.5 miles    
Events Rain    
Averages and records for this station are not official NWS values.
T = Trace of Precipitation, MM = Missing Value Source: Averaged Metar Reports

Daily Weather History Graph

Daily Weather History Graph

Search for Another Location

Airport or City:

Trip Planner

Search our weather history database for the weather conditions in past years. The results will help you decide how hot, cold, wet, or windy it might be!

Date:

Astronomy

Nov. 13, 2013 Rise Set
Actual Time 7:15 AM EET 5:05 PM EET
Civil Twilight 6:45 AM EET 5:35 PM EET
Nautical Twilight 6:11 AM EET 6:09 PM EET
Astronomical Twilight 5:37 AM EET 6:43 PM EET
Moon 2:47 PM EET (11/13) 2:43 AM EET (11/13)
Length of Visible Light 10h 50m
Length of Day
9h 50m
Waxing Gibbous, 82% of the Moon is Illuminated
Nov 13
Waxing Gibbous
Nov 17
Full
Nov 25
Last Quarter
Dec 3
New
Dec 9
First Quarter

Hourly Weather History & Observations

Time (EET) Temp. Dew Point Humidity Pressure Visibility Wind Dir Wind Speed Gust Speed Precip Events Conditions
12:00 AM 55.4 °F 51.8 °F 88% 30.24 in 6.2 mi ESE 6.7 mph - N/A   Overcast
12:30 AM 57.2 °F 53.6 °F 88% 30.21 in 6.2 mi East 11.2 mph - N/A   Overcast
1:00 AM 57.2 °F 55.4 °F 94% 30.21 in 5.0 mi East 11.2 mph - N/A   Overcast
1:30 AM 55.4 °F 53.6 °F 94% 30.21 in 5.0 mi East 13.4 mph - N/A   Overcast
2:00 AM 54 °F 51 °F 86% 30.22 in 5 mi East 2.2 mph - -   Mist
2:00 AM 53.6 °F 51.8 °F 94% 30.24 in 5.0 mi East 11.2 mph - N/A   Overcast
2:30 AM 53.6 °F 51.8 °F 94% 30.24 in 4.3 mi East 8.9 mph - N/A   Overcast
3:00 AM 57.2 °F 55.4 °F 94% 30.21 in 4.3 mi East 11.2 mph - N/A   Overcast
3:30 AM 57.2 °F 55.4 °F 94% 30.21 in 3.7 mi East 11.2 mph - N/A   Overcast
4:00 AM 55.4 °F 53.6 °F 94% 30.21 in 4.3 mi East 11.2 mph - N/A   Overcast
4:30 AM 55.4 °F 53.6 °F 94% 30.21 in 4.3 mi East 11.2 mph - N/A   Overcast
5:00 AM 52 °F 49 °F 86% 30.22 in 5 mi ESE 6.7 mph - - Rain Light Drizzle
5:00 AM 55.4 °F 53.6 °F 94% 30.21 in 4.3 mi East 11.2 mph - N/A   Overcast
5:30 AM 53.6 °F 51.8 °F 94% 30.21 in 3.7 mi East 13.4 mph - N/A   Mostly Cloudy
6:00 AM 50.0 °F 50.0 °F 100% 30.18 in 3.7 mi East 15.7 mph - N/A   Mostly Cloudy
6:30 AM 50.0 °F 50.0 °F 100% 30.18 in 3.7 mi East 13.4 mph - N/A   Mostly Cloudy
7:00 AM 51.8 °F 50.0 °F 94% 30.18 in 6.2 mi East 15.7 mph - N/A   Mostly Cloudy
7:30 AM 50.0 °F 48.2 °F 94% 30.21 in 4.3 mi East 13.4 mph - N/A   Overcast
8:00 AM 52 °F 48 °F 83% 30.22 in 6 mi East 4.5 mph - -   Partly Cloudy
8:00 AM 53.6 °F 51.8 °F 94% 30.21 in 4.3 mi East 11.2 mph - N/A   Overcast
8:30 AM 53.6 °F 51.8 °F 94% 30.21 in 3.7 mi ESE 15.7 mph - N/A   Overcast
9:00 AM 55.4 °F 51.8 °F 88% 30.21 in 4.3 mi ESE 13.4 mph - N/A   Overcast
9:30 AM 53.6 °F 50.0 °F 88% 30.21 in 4.3 mi East 13.4 mph - N/A   Overcast
10:00 AM 51.8 °F 48.2 °F 88% 30.21 in 5.0 mi ESE 13.4 mph - N/A   Overcast
10:30 AM 51.8 °F 48.2 °F 88% 30.21 in 5.6 mi ESE 13.4 mph - N/A   Overcast
11:00 AM 51 °F 48 °F 85% 30.22 in 4 mi East 8.9 mph - - Rain Light Rain
11:00 AM 53.6 °F 48.2 °F 82% 30.21 in 6.2 mi ESE 13.4 mph - N/A   Overcast
11:30 AM 53.6 °F 48.2 °F 82% 30.21 in 6.2 mi ESE 13.4 mph - N/A   Overcast
12:00 PM 57.2 °F 50.0 °F 77% 30.18 in 6.2 mi ESE 13.4 mph - N/A   Mostly Cloudy
12:30 PM 55.4 °F 50.0 °F 82% 30.18 in 6.2 mi ESE 11.2 mph - N/A   Mostly Cloudy
1:00 PM 55.4 °F 50.0 °F 82% 30.18 in 6.2 mi SE 11.2 mph - N/A   Overcast
1:30 PM 55.4 °F 48.2 °F 77% 30.18 in 6.2 mi SE 11.2 mph - N/A   Overcast
2:00 PM 53 °F 47 °F 73% 30.19 in 6 mi ESE 6.7 mph - -   Partly Cloudy
2:00 PM 57.2 °F 50.0 °F 77% 30.18 in 6.2 mi SE 11.2 mph - N/A   Overcast
2:30 PM 57.2 °F 50.0 °F 77% 30.15 in 6.2 mi SE 11.2 mph - N/A   Overcast
3:00 PM 57.2 °F 50.0 °F 77% 30.15 in 6.2 mi SE 11.2 mph - N/A   Overcast
3:30 PM 57.2 °F 50.0 °F 77% 30.15 in 6.2 mi SE 8.9 mph - N/A   Overcast
4:00 PM 59.0 °F 51.8 °F 77% 30.15 in 6.2 mi SE 8.9 mph - N/A   Mostly Cloudy
4:30 PM 55.4 °F 48.2 °F 77% 30.15 in 6.2 mi SE 11.2 mph - N/A   Mostly Cloudy
5:00 PM 52 °F 46 °F 75% 30.16 in 7 mi East 4.5 mph - -   Mostly Cloudy
5:00 PM 55.4 °F 48.2 °F 77% 30.15 in 6.2 mi SE 8.9 mph - N/A   Mostly Cloudy
5:30 PM 55.4 °F 48.2 °F 77% 30.15 in 6.2 mi ESE 8.9 mph - N/A   Overcast
6:00 PM 53.6 °F 48.2 °F 82% 30.15 in 6.2 mi ESE 8.9 mph - N/A   Overcast
6:30 PM 51.8 °F 48.2 °F 88% 30.15 in 6.2 mi East 8.9 mph - N/A   Overcast
7:00 PM 51.8 °F 48.2 °F 88% 30.15 in 6.2 mi East 8.9 mph - N/A   Overcast
7:30 PM 51.8 °F 48.2 °F 88% 30.15 in 6.2 mi East 8.9 mph - N/A   Overcast
8:00 PM 51 °F 45 °F 72% 30.15 in 7 mi East 4.5 mph - -   Overcast
8:00 PM 51.8 °F 48.2 °F 88% 30.15 in 6.2 mi East 8.9 mph - N/A   Overcast
8:30 PM 51.8 °F 48.2 °F 88% 30.15 in 6.2 mi East 6.7 mph - N/A   Overcast
9:00 PM 51.8 °F 48.2 °F 88% 30.15 in 6.2 mi East 6.7 mph - N/A   Overcast
9:30 PM 51.8 °F 50.0 °F 94% 30.15 in 6.2 mi East 6.7 mph - N/A   Overcast
10:00 PM 51.8 °F 50.0 °F 94% 30.15 in 6.2 mi ESE 6.7 mph - N/A   Overcast
10:30 PM 51.8 °F 50.0 °F 94% 30.15 in 6.2 mi ESE 6.7 mph - N/A   Overcast
11:00 PM 49 °F 46 °F 86% 30.16 in 6 mi East 4.5 mph - -   Mostly Cloudy
11:00 PM 51.8 °F 50.0 °F 94% 30.15 in 6.2 mi East 6.7 mph - N/A   Overcast
11:30 PM 51.8 °F 50.0 °F 94% 30.15 in 6.2 mi East 8.9 mph - N/A   Overcast